Coffeyville, KS

3:12 PM CDT on June 26, 2017 (GMT -0500)
Coffeyville Municipal

Weather History for KCFV - October, 2013

Change the Weather History Date:

Wednesday, October 16, 2013

  Actual Average Record
Temperature  
Mean Temperature 48 °F -  
Max Temperature 57 °F 69 °F 88 °F (2011)
Min Temperature 41 °F 45 °F 30 °F (2001)
Degree Days  
Heating Degree Days 17    
Moisture  
Dew Point 42 °F    
Average Humidity 75    
Maximum Humidity 93    
Minimum Humidity 57    
Precipitation  
Precipitation 0.00 in - - ()
Sea Level Pressure  
Sea Level Pressure 30.11 in    
Wind  
Wind Speed 5 mph (NW)    
Max Wind Speed 9 mph    
Max Gust Speed -    
Visibility 10 miles    
Events      
Averages and records for this station are not official NWS values.
T = Trace of Precipitation, MM = Missing Value Source: NWS Daily Summary

Daily Weather History Graph

Daily Weather History Graph

Search for Another Location

Airport or City:

Trip Planner

Search our weather history database for the weather conditions in past years. The results will help you decide how hot, cold, wet, or windy it might be!

Date:

Astronomy

Oct. 16, 2013 Rise Set
Actual Time 7:31 AM CDT 6:43 PM CDT
Civil Twilight 7:04 AM CDT 7:09 PM CDT
Nautical Twilight 6:34 AM CDT 7:40 PM CDT
Astronomical Twilight 6:04 AM CDT 8:10 PM CDT
Moon 5:21 PM CDT (10/16) 5:03 AM CDT (10/16)
Length of Visible Light 12h 04m
Length of Day
11h 12m
Waxing Gibbous, 94% of the Moon is Illuminated
Oct 16
Waxing Gibbous
Oct 18
Full
Oct 26
Last Quarter
Nov 3
New
Nov 9
First Quarter

Hourly Weather History & Observations

Time (CDT) Temp. Windchill Dew Point Humidity Pressure Visibility Wind Dir Wind Speed Gust Speed Precip Events Conditions
12:52 AM 48.9 °F - 42.1 °F 77% 30.12 in 10.0 mi NNW 5.8 mph - N/A   Clear
1:52 AM 46.9 °F - 41.0 °F 80% 30.13 in 10.0 mi NNW 5.8 mph - N/A   Clear
2:52 AM 46.0 °F 43.1 °F 39.9 °F 79% 30.14 in 10.0 mi NNW 5.8 mph - N/A   Clear
3:52 AM 44.1 °F 41.5 °F 39.0 °F 82% 30.13 in 10.0 mi NW 4.6 mph - N/A   Clear
4:52 AM 43.0 °F 40.3 °F 39.0 °F 86% 30.12 in 10.0 mi NNW 4.6 mph - N/A   Clear
5:52 AM 42.1 °F 38.4 °F 39.0 °F 89% 30.12 in 10.0 mi NNW 5.8 mph - N/A   Clear
6:52 AM 42.1 °F 39.2 °F 37.9 °F 85% 30.14 in 10.0 mi NW 4.6 mph - N/A   Clear
7:52 AM 41.0 °F 39.0 °F 37.9 °F 89% 30.17 in 10.0 mi West 3.5 mph - N/A   Clear
8:52 AM 45.0 °F 42.6 °F 39.0 °F 80% 30.17 in 10.0 mi NW 4.6 mph - N/A   Clear
9:52 AM 50.0 °F - 39.9 °F 68% 30.18 in 10.0 mi North 6.9 mph - N/A   Clear
10:52 AM 51.1 °F - 39.0 °F 63% 30.16 in 10.0 mi North 6.9 mph - N/A   Clear
11:52 AM 54.0 °F - 39.9 °F 59% 30.15 in 10.0 mi NNW 9.2 mph - N/A   Partly Cloudy
12:52 PM 54.0 °F - 39.9 °F 59% 30.12 in 10.0 mi NNW 4.6 mph - N/A   Clear
1:52 PM 55.0 °F - 41.0 °F 59% 30.08 in 10.0 mi NNW 8.1 mph - N/A   Partly Cloudy
2:52 PM 55.0 °F - 39.9 °F 57% 30.06 in 10.0 mi Calm Calm - N/A   Partly Cloudy
3:52 PM 55.0 °F - 41.0 °F 59% 30.07 in 10.0 mi WNW 3.5 mph - N/A   Mostly Cloudy
4:52 PM 55.0 °F - 42.1 °F 62% 30.06 in 10.0 mi WSW 4.6 mph - N/A   Overcast
5:52 PM 55.0 °F - 43.0 °F 64% 30.07 in 10.0 mi WSW 4.6 mph - N/A   Overcast
6:52 PM 53.1 °F - 44.1 °F 71% 30.07 in 10.0 mi WSW 4.6 mph - 0.00 in   Overcast
7:52 PM 51.1 °F - 46.0 °F 83% 30.07 in 10.0 mi West 4.6 mph - 0.00 in   Overcast
8:52 PM 50.0 °F - 46.9 °F 89% 30.07 in 10.0 mi SW 3.5 mph - 0.00 in   Overcast
9:52 PM 50.0 °F - 46.9 °F 89% 30.07 in 10.0 mi WSW 4.6 mph - N/A   Overcast
10:52 PM 50.0 °F - 46.0 °F 86% 30.06 in 10.0 mi West 3.5 mph - N/A   Mostly Cloudy
11:52 PM 48.0 °F - 46.0 °F 93% 30.06 in 10.0 mi Calm Calm - N/A   Mostly Cloudy